"Pseudo-MPEC" for P10LPUO

Created 2019 Feb 15 22:18:09 UT using Find_Orb

Click here for an explanation of pseudo-MPECs

 
 Astrometry: 
     P10LPUO  C2019 01 24.5gGXuUByXa]AstrometryNlK:G1cwK+nf%!G:@A$0bKh]'07_qtF51
     P10LPUO  C2019 01 24Db[*0!ce#'wx+-aWOx8_5Q0/MbS7swS.[cdEO@V=!JMy:e8P94OgF51
     P10LPUO  C2019 01 24^Uy3v!C9V9rfq3Qd=mf0[fH];gW-Aob@\^AZRxsJJ:A]E+T9LeNhF51
     P10LPUO  C2019 01 24T_,p%B/;RPe#j`:5Fo(r4W:?.?fL/te;kj8TD:owjZT4tHJ@=,l+F51
     P10LPUO |C2019 01 27w5fb*1,BeQ]4('n6B^@cVLUajbf;AX9VxUa/b]NmtbO0erRI8oYK807
     P10LPUO |C2019 01 27s=?qrZZZ=b'8$VnhAfAEXjXv;S+\o/EhL:DRNYok:aoq/^luYk-I807
     P10LPUO |C2019 01 27LxToJL/H$7[N(v5RmEj9tIredacted;+(LU2k2U!_SU.W(=Y,.;4807
     P10LPUO 1C2019 01 28gQCj6%kkbXFcqyr%0Tvj;^_OOPyLh9sF]0%Uqb3=%^qQc',9KGx0Q62
     P10LPUO 1C2019 01 28RGVR+fX+AOG/Fm=W1EcJpdH';PAk*$wQZ*6uukv*kR/4cTwg$j_WQ62
     P10LPUO 1C2019 01 28/s)FsEAnjS\@+k.Hy`i#Y=YSx[W]4g03)=.Q.L*DGiiUkh;[EqnbQ62
     P10LPUO KC2019 01 29F-Y65hBCnLA;p0KaR@vx8k:B9!.rR.?`RP;tr9iyZ^IEcdw*aOBRI47
     P10LPUO KC2019 01 29wZ67:ih0c:IRm]kp(T[Z^B/ZNyEsDqjv,'3FpU0YJYfqqWhS1I3pI47
     P10LPUO KC2019 01 31lu!\qaclick=*a3:rGd+3[jI0ULC%q@0jq96l:McUjG=X;5%%@8;I47
     P10LPUO KC2019 01 31*qb%[-vtChiJ+Do,;MHPR'KDBHZa/KR9vnr1!n`y6OIuM(ik*?weI47
     P10LPUO KC2019 01 31U[UI1IACK6)J2s_l^(]B5-FVomfrHGMK2wm/H]8Lc$E?dkWlOyHdI47
     P10LPUO KC2019 01 31)d;VjNS]]UtP'7T'Wrr4?GhgeO\:_xTh=pE-DRD[.r15/f@85/W6I47
     P10LPUO KC2019 02 01eZJ.Q@S8_\mTe]=+y^Dhm!%j5p\+5pUCGPP_H6u))B@FM@*qbwMAI47
     P10LPUO KC2019 02 01'3qJZ!!sI7HtQH;Ru5\Gw4Ns/UO!?7(RbRgc-:fx=lsHnhD#7kT%I47
     P10LPUO KC2019 02 02mHK0XAMe[9dx`7!.%!R\8Cjq,kOO^w!^-Y%ZD;MbmheregynvXJN474
     P10LPUO KC2019 02 02#t3RIr)J06)jJ(_wj,ejU;H%i=AoU8YOKeSwn#.*aR.ik+3wJWRe474
     P10LPUO KC2019 02 02yb2lBwE?k'OcY],$B@VGQ.2W@u.MTa5Js'lp2;)9jFM'-QJMaqXp474
     P10LPUO KC2019 02 02g`,kY4^*npEwcjD6KQBOX)F6S^wK%:l?!]xiA(]kN[/rYyCdAsv%474
     P10LPUO ^C2019 02 04.65889912 17 24.622-38 39 14.69   ~24Jm 19.10GVNEOCP568
     P10LPUO ^C2019 02 04.66008012 17 24.589-38 39 15.17   ~24Jm 19.29GVNEOCP568
     P10LPUO ^C2019 02 04.66125912 17 24.558-38 39 15.62   ~24Jm 19.35GVNEOCP568
     P10LPUO  C2019 02 06\L$NkYfCHaL,STgbaId]v:p([MlyKFD*fBSNn_[w\Z8+xu\8kRN3W85
     P10LPUO  C2019 02 06DPrf)4B[6HXr(qWZF9rlE6@3\:\,$\Ql?Qa3pcEBEy%=mw/8gOKJW85
     P10LPUO  C2019 02 06?SX^+8Er..=PSZ)2Qv/`iwi:!28a;M[n+tSCsK+(i[5#dHforT;1W85
     P10LPUO  C2019 02 06I7J?,w!\O.YHYd*y@YB3Y-[=p;YB,^a85mrk!+:4JD7#pA:^TH?qW85
     P10LPUO KC2019 02 075AfK^YwOZ\in,h_0,V+Gn`o31gKx+LT'8%eqn+^8SE9/fI:3=\Pf474
     P10LPUO KC2019 02 07vB(!ayW0^oH8n(Q#nT\qrr!^v1IM9:oB;1uLAZuirjK#msW1/(*(474
     P10LPUO KC2019 02 07B_6k'+VWw6R@.Bkej?v!N$_Vb(41M0S2xm+UJR`osIk45]1k2iPB474
     P10LPUO KC2019 02 15IrvHf[#6x/PG\yl!h(8Ss$B#GN62DP-n]ph?MX=\c?b0tP8f)ekCI47
     P10LPUO KC2019 02 15eeIp.hC@_Z)#Slg'vZmZE8`h*H!bd(!*QK8sI22)i\bV=^60r\I2I47
     P10LPUO KC2019 02 15DR6(]explanation;tVd-BGI1]1gI$1v:4.ruiRyJQQ:YhUTDta@I47

Station data:
(474) Mount John Observatory, Lake Tekapo  (S43.987388 E170.464960)  New
   Zealand.  Observers A. C. Gilmore, P. M. Kilmartin. Measurer P. M.
   Kilmartin. 1.0-m f/7.7 reflector + CCD.
(568) Mauna Kea  (N19.826116 W155.472200)  US/Hawaii.
(807) Cerro Tololo Observatory, La Serena  (S30.169136 W70.805900)  Chile.
   1.5-m Ritchey-Chrétien.
(F51) Pan-STARRS 1, Haleakala  (N20.707235 W156.255910)  US/Hawaii.
   Observers N. Primak, A. Schultz, S. Watters, J. Thiel, T. Goggia. Measurer
   PS1 Science Consortium. 1.8-m Ritchey-Chrétien + CCD.
(I47) Pierre Auger Observatory, Malargüe  (S35.495442 W69.449700)  Argentina.
(Q62) iTelescope Observatory, Siding Spring  (S31.273289 E149.064420)
   Australia/NSW. 0.50-m f/6.8 astrograph + CCD + focal reducer, 0.70-m f/6.6
   astrograph + CCD.
(W85) Cerro Tololo-LCO A  (S30.167407 W70.804810)  Chile.  Observers T.
   Lister, S. Greenstreet, E. Gomez. Measurer T. Lister. 1.0-m f/8
   Ritchey-Chrétien + CCD.

Orbital elements:  P10LPUO
   Perihelion 2021 Jan 17.971664 +/- 2.68 TT = 23:19:11 (JD 2459232.471664)
Epoch 2019 Feb 15.0 TT = JDT 2458529.5                        AutoNEOCP
q   6.83362217 +/- 0.024            (J2000 ecliptic)
H   10.2  G 0.15                    Peri.  263.71771 +/- 0.36
                                    Node   358.41409 +/- 0.033
e   1.0038569 +/- 0.00664           Incl.   66.53448 +/- 0.039
From 35 observations 2019 Jan. 24-Feb. 15; mean residual 0".37
Residuals in arcseconds: 
190124 F51  .02-  .26-    190131 I47  .56-  1.0+    190204 568  .00   .10+    
190124 F51  .11-  .20-    190131 I47  .13+  .39-    190206 W85  .25-  .25-    
190124 F51  .06-  .00     190131 I47  .45+  .59+    190206 W85  .31-  .19-    
190124 F51  .22-  .16-    190131 I47  .60-  .36+    190206 W85  .32-  .26-    
190127 807  .06-  .13+    190201 I47  .73+  .23+    190206 W85  .33-  .34-    
190127 807  .12-  .09+    190201 I47  .52+  .51+    190207 474  .07+  .03-    
190127 807  .27-  .09+    190202 474  .23-  .43-    190207 474  .12+  .01-    
190128 Q62  .13+  .34-    190202 474  .08-  .46+    190207 474  .17+  .20-    
190128 Q62  .06+  .44-    190202 474  .75-  .85-    190215 I47  .06+  .17+    
190128 Q62  .13-  .55-    190202 474  .12+  .46-    190215 I47  .21+  .04-    
190129 I47  1.0+  .80+    190204 568  .15+  .27+    190215 I47  .10-  .14+    
190129 I47  .21+  .43+    190204 568  .06+  .17+    

Ephemerides (geocentric):
Date (UTC) HH   RA              Dec         delta   r     elong  mag " sig PA
---- -- -- --  -------------   -----------  ------ ------ -----  --- ---- ---
2019 02 15 22  12 12 45.285   -39 35 38.04  7.6887 8.2105 118.8 19.7 .210 127
2019 02 15 23  12 12 44.115   -39 35 49.48  7.6881 8.2104 118.8 19.7 .213 127
2019 02 16 00  12 12 42.944   -39 36 00.91  7.6875 8.2102 118.9 19.7 .215 127
2019 02 16 01  12 12 41.772   -39 36 12.33  7.6869 8.2101 118.9 19.7 .217 127
2019 02 16 02  12 12 40.599   -39 36 23.74  7.6863 8.2099 118.9 19.7 .219 127
2019 02 16 03  12 12 39.425   -39 36 35.14  7.6857 8.2098 119.0 19.7 .221 127
2019 02 16 04  12 12 38.251   -39 36 46.54  7.6851 8.2096 119.0 19.7 .223 127
2019 02 16 05  12 12 37.075   -39 36 57.93  7.6845 8.2095 119.0 19.7 .225 127
2019 02 16 06  12 12 35.898   -39 37 09.30  7.6839 8.2093 119.1 19.7 .227 127
2019 02 16 07  12 12 34.721   -39 37 20.67  7.6833 8.2092 119.1 19.7 .229 127
2019 02 16 08  12 12 33.542   -39 37 32.03  7.6827 8.2091 119.1 19.7 .231 127
2019 02 16 09  12 12 32.363   -39 37 43.39  7.6821 8.2089 119.2 19.7 .234 127
2019 02 16 10  12 12 31.183   -39 37 54.73  7.6815 8.2088 119.2 19.7 .236 127
2019 02 16 11  12 12 30.001   -39 38 06.07  7.6809 8.2086 119.2 19.7 .238 128
2019 02 16 12  12 12 28.819   -39 38 17.39  7.6803 8.2085 119.3 19.7 .240 128
2019 02 16 13  12 12 27.636   -39 38 28.71  7.6797 8.2083 119.3 19.7 .242 128
2019 02 16 14  12 12 26.451   -39 38 40.02  7.6791 8.2082 119.3 19.7 .244 128
2019 02 16 15  12 12 25.266   -39 38 51.32  7.6785 8.2080 119.4 19.7 .246 128
2019 02 16 16  12 12 24.080   -39 39 02.61  7.6779 8.2079 119.4 19.7 .249 128
2019 02 16 17  12 12 22.893   -39 39 13.90  7.6773 8.2077 119.4 19.7 .251 128
2019 02 16 18  12 12 21.705   -39 39 25.17  7.6767 8.2076 119.4 19.7 .253 128
2019 02 16 19  12 12 20.516   -39 39 36.44  7.6761 8.2075 119.5 19.7 .255 128
2019 02 16 20  12 12 19.326   -39 39 47.69  7.6755 8.2073 119.5 19.7 .257 128
2019 02 16 21  12 12 18.136   -39 39 58.94  7.6749 8.2072 119.5 19.7 .260 128
2019 02 16 22  12 12 16.944   -39 40 10.18  7.6743 8.2070 119.6 19.7 .262 128
2019 02 16 23  12 12 15.751   -39 40 21.42  7.6737 8.2069 119.6 19.7 .264 128
2019 02 17 00  12 12 14.558   -39 40 32.64  7.6731 8.2067 119.6 19.7 .266 128
2019 02 17 01  12 12 13.363   -39 40 43.85  7.6725 8.2066 119.7 19.7 .269 128
2019 02 17 02  12 12 12.168   -39 40 55.06  7.6719 8.2064 119.7 19.7 .271 128
2019 02 17 03  12 12 10.971   -39 41 06.26  7.6713 8.2063 119.7 19.7 .273 128
2019 02 17 04  12 12 09.774   -39 41 17.44  7.6707 8.2062 119.8 19.7 .275 128
2019 02 17 05  12 12 08.575   -39 41 28.62  7.6701 8.2060 119.8 19.7 .278 128
2019 02 17 06  12 12 07.376   -39 41 39.79  7.6695 8.2059 119.8 19.7 .280 128
2019 02 17 07  12 12 06.176   -39 41 50.96  7.6689 8.2057 119.9 19.7 .282 128
2019 02 17 08  12 12 04.975   -39 42 02.11  7.6683 8.2056 119.9 19.7 .284 128
2019 02 17 09  12 12 03.773   -39 42 13.25  7.6677 8.2054 119.9 19.6 .287 128
2019 02 17 10  12 12 02.570   -39 42 24.39  7.6671 8.2053 120.0 19.6 .289 128
2019 02 17 11  12 12 01.366   -39 42 35.52  7.6665 8.2051 120.0 19.6 .291 128
2019 02 17 12  12 12 00.161   -39 42 46.64  7.6660 8.2050 120.0 19.6 .294 128
2019 02 17 13  12 11 58.955   -39 42 57.75  7.6654 8.2048 120.1 19.6 .296 128
2019 02 17 14  12 11 57.749   -39 43 08.85  7.6648 8.2047 120.1 19.6 .298 128
2019 02 17 15  12 11 56.541   -39 43 19.94  7.6642 8.2046 120.1 19.6 .301 128
2019 02 17 16  12 11 55.332   -39 43 31.02  7.6636 8.2044 120.1 19.6 .303 128
2019 02 17 17  12 11 54.123   -39 43 42.10  7.6630 8.2043 120.2 19.6 .305 128
2019 02 17 18  12 11 52.912   -39 43 53.17  7.6624 8.2041 120.2 19.6 .308 128
2019 02 17 19  12 11 51.701   -39 44 04.22  7.6618 8.2040 120.2 19.6 .310 128
2019 02 17 20  12 11 50.489   -39 44 15.27  7.6612 8.2038 120.3 19.6 .313 128
2019 02 17 21  12 11 49.275   -39 44 26.31  7.6606 8.2037 120.3 19.6 .315 128